Regional Weather Roundup
Issued by NWS Charleston, SC

Current Version | Previous Version | Graphics & Text | Print | Product List | Glossary On
Versions: 1 2 3 4 5 6 7 8 9 10 11 12 13 14 15 16 17 18 19 20 21 22 23 24 25 26 27 28 29 30 31 32 33 34 35 36 37 38 39 40 41 42 43 44 45 46 47 48 49 50
000
ASUS42 KCHS 182110
RWRCHS
REGIONAL WEATHER ROUNDUP
NATIONAL WEATHER SERVICE CHARLESTON SC
400 PM EST THU DEC 18 2014

NOTE: "FAIR" INDICATES FEW OR NO CLOUDS BELOW 12,000 FEET WITH NO
SIGNIFICANT WEATHER AND/OR OBSTRUCTIONS TO VISIBILITY.

NOT ALL STATIONS ARE QUALITY CONTROLLED BY THE NATIONAL
WEATHER SERVICE. USE DATA WITH CAUTION...ESPECIALLY
DEWPOINT OBSERVATIONS.

SCZ027-030-031-034>040-042>050-182200-
...SOUTHEAST SOUTH CAROLINA...

CITY           SKY/WX    TMP DP  RH WIND       PRES   REMARKS
N CHARLESTON   MOSUNNY   60  42  51 SE8       30.07S
WATERFRONT PRK   N/A     57 N/A N/A E10         N/A
MOUNT PLEASANT LGT RAIN  59  45  58 CALM      30.07F
PINOPOLIS        N/A     61  48  63 N5        29.98F
MONCKS CORNER  FAIR      61  43  51 CALM      30.06F
SUMMERVILLE    FAIR      63  43  48 CALM      30.07F
BEAUFORT MCAS  MOSUNNY   62  41  46 CALM      30.07S
BEAUFORT ARPT  FAIR      61  46  59 CALM      30.06S
HILTON HEAD IS SUNNY     57  46  67 CALM      30.09S
WALTERBORO     CLEAR     63  36  36 CALM      30.08S
ALLENDALE      FAIR      63  41  45 CALM      30.07R

...SOUTHERN MIDLANDS AND PEE DEE...

CITY           SKY/WX    TMP DP  RH WIND       PRES   REMARKS
GEORGETOWN     NOT AVBL
KINGSTREE      NOT AVBL
ORANGEBURG     MOSUNNY   61  38  42 CALM      30.07S
BARNWELL       FAIR      63  41  45 CALM      30.07F
AIKEN          FAIR      61  39  44 SW3       30.10S
MANNING        NOT AVBL
COLUMBIA       MOSUNNY   59  34  39 CALM      30.07S
SUMTER         SUNNY     58  32  38 E3        30.06S
FLORENCE       SUNNY     58  28  32 E3        30.07F
MYRTLE BEACH   SUNNY     54  34  47 SE8       30.10S
N MYRTLE BEACH MOSUNNY   54  37  52 S6        30.09R

$$

GAZ063-065-086>088-099>101-113>116-118-119-134>141-150-182200-
...SOUTHEAST GEORGIA...

CITY           SKY/WX    TMP DP  RH WIND       PRES   REMARKS
SAVANNAH ARPT  PTSUNNY   63  36  36 CALM      30.07F
HUNTER AAF     SUNNY     64  38  38 W5        30.06R
FORT STEWART   SUNNY     65  36  33 W3        30.06S
STATESBORO     SUNNY     62  39  43 CALM      30.08R
SYLVANIA       CLEAR     62  42  47 CALM      30.09R
CLAXTON        FAIR      63  37  39 NW5       30.08S

...CSRA...CENTRAL AND FAR SOUTHEAST GEORGIA...

CITY           SKY/WX    TMP DP  RH WIND       PRES   REMARKS
THOMSON        PTSUNNY   61  43  53 W3        30.12F
AUGUSTA-BUSH   SUNNY     62  38  40 CALM      30.07F
AUGUSTA-DANIEL SUNNY     62  39  42 CALM      30.07F
SWAINSBORO     FAIR      64  37  36 NW3       30.08F
VIDALIA        SUNNY     63  36  36 W6        30.09R
EASTMAN        FAIR      65  32  29 SW3       30.11S
HAZLEHURST     FAIR      67  34  29 CALM      30.07F
ALMA           SUNNY     66  28  24 W5        30.08S
WAYCROSS       MOSUNNY   66  40  38 CALM      30.09S
JESUP          FAIR      66  37  34 W3        30.08S
BAXLEY         FAIR      66  32  28 W5        30.08S
BRUNSWICK      MOSUNNY   63  34  34 SW6       30.09S
SAINT SIMONS   PTSUNNY   60  43  53 SW7       30.08S

$$

SCZ027-028-034-036>038-045-046-048>050-GAZ119-141-182200-
...LAKE AND SUPPLEMENTAL COASTAL OBSERVATIONS...

STATION/POSITION TIME  TEMP    WIND        PRES    WAVE   SWELL
                       AIR SEA DIR/SP/G            HT/PER HT/PER/DIR
                 (UTC) (F)     (DEG/KT/KT) (MB)    (FT/S) (FT/S/D)
UPR LAKE MARION  NOT AVBL
WINYAH BAY       2000   53      60/  8     1018.0S
LAKE MURRAY      2000   57     250/  2/  2 1017.9F
ACE BASIN NERRS  2000   58        CALM     1018.0S
FORT PULASKI     2100   57 57  170/  3/  5 1018.6F
SAPELO ISLAND    2000   64        CALM     1018.0S

$$

ANZ835-935-AMZ111-154-330-350-352-354-370-450-454-472-182200-
...C-MAN AND BUOY OBSERVATIONS...

STATION/POSITION TIME  TEMP    WIND        PRES    WAVE   SWELL
                       AIR SEA DIR/SP/G            HT/PER HT/PER/DIR
                 (UTC) (F)     (DEG/KT/KT) (MB)    (FT/S) (FT/S/D)
BUOY 41004       2100   61 73  300/  2/  6 1017.9S   1/11   2/11
BUOY 41008       2100   54 58  220/  6/  6 1018.5F   1/10
FOLLY BEACH CMAN 2000   56      80/  6/  7 1019.2F
CAPERS NEARSHORE 2000   55      60/ 12/ 14   N/A
FRIPP NEARSHORE  NOT AVBL


STATION/POSITION TIME  TEMP    WIND        PRES    WAVE   SWELL
                       AIR SEA DIR/SP/G            HT/PER HT/PER/DIR
                 (UTC) (F)     (DEG/KT/KT) (MB)    (FT/S) (FT/S/D)
5E ST. MARYS GA  2100      61                N/A     1/10
FRYING PAN BUOY  2100   56 65   30/ 10/ 12 1019.1F   2/ 5   2/ 30/ 5
BUOY 41025       2100   48                 1019.5R   3/ 6
CAPE LOOKOUT NC  2000   48      60/  8/  9 1019.2R
BUOY 41002       1954   69 73  310/  8/ 10 1017.4    3/ 6   3/250/ 6
BUOY 41010       2100   71 76  310/  8/ 10 1018.2S   2/ 9   2/100/ 9
ST AUGUSTINE FL  2100   63     270/  5/  8 1019.8R


$$



USA.gov is the U.S. government's official web portal to all federal, state and local government web resources and services.